| time (UTC) | temp F | wind direction | speed MPH | gust MPH | rain 1hr in | rain 24hr in | rain mn in | humidity % | barometer mb |
| 20260504173244 | 71 | 203 | 8.0 | 14.0 | 0.00 | 0.00 | 0.00 | 62 | 1009.6 |
| 20260504172244 | 71 | 225 | 9.0 | 18.0 | 0.00 | 0.00 | 0.00 | 61 | 1009.7 |
| 20260504171304 | 71 | 225 | 10.0 | 21.0 | 0.00 | 0.00 | 0.00 | 62 | 1009.8 |
| 20260504170244 | 71 | 225 | 10.0 | 30.0 | 0.00 | 0.00 | 0.00 | 61 | 1009.9 |
| 20260504160244 | 71 | 225 | 9.0 | 19.0 | 0.00 | 0.00 | 0.00 | 59 | 1010.2 |
| 20260504150304 | 71 | 203 | 8.0 | 14.0 | 0.00 | 0.00 | 0.00 | 59 | 1010.4 |
| 20260504141244 | 71 | 203 | 9.0 | 19.0 | 0.00 | 0.00 | 0.00 | 61 | 1010.7 |
| 20260504140304 | 71 | 225 | 8.0 | 19.0 | 0.00 | 0.00 | 0.00 | 62 | 1010.9 |
| 20260504130243 | 71 | 225 | 10.0 | 19.0 | 0.00 | 0.00 | 0.00 | 64 | 1011.7 |
| 20260504120244 | 68 | 225 | 11.0 | 20.0 | 0.00 | 0.00 | 0.00 | 74 | 1012.5 |
| 20260504110243 | 69 | 203 | 6.0 | 15.0 | 0.00 | 0.00 | 0.00 | 77 | 1012.6 |
| 20260504100243 | 67 | 203 | 11.0 | 18.0 | 0.00 | 0.00 | 0.00 | 79 | 1013.2 |
| 20260504081323 | 66 | 270 | 4.0 | 8.0 | 0.00 | 0.00 | 0.00 | 82 | 1013.0 |
| 20260504080243 | 66 | 225 | 4.0 | 8.0 | 0.00 | 0.00 | 0.00 | 82 | 1013.1 |
| 20260504070243 | 65 | 0.0 | 2.0 | 0.00 | 0.00 | 0.00 | 87 | 1012.9 | |
| 20260504050242 | 63 | 0.0 | 1.0 | 0.00 | 0.00 | 0.00 | 88 | 1012.0 | |
| 20260504045243 | 63 | 338 | 1.0 | 3.0 | 0.00 | 0.00 | 0.00 | 88 | 1011.9 |
| 20260504044242 | 63 | 113 | 1.0 | 3.0 | 0.00 | 0.00 | 0.00 | 88 | 1011.7 |
| 20260504043302 | 63 | 0.0 | 0.0 | 0.00 | 0.00 | 0.00 | 87 | 1011.8 | |
| 20260504042242 | 63 | 0.0 | 0.0 | 0.00 | 0.00 | 0.00 | 87 | 1011.7 | |
| 20260504041242 | 64 | 0.0 | 2.0 | 0.00 | 0.00 | 0.00 | 87 | 1011.6 | |
| 20260504040302 | 64 | 0.0 | 0.0 | 0.00 | 0.00 | 0.00 | 87 | 1011.5 | |
| 20260504035242 | 64 | 225 | 1.0 | 2.0 | 0.00 | 0.00 | 0.00 | 87 | 1011.8 |
| 20260504034242 | 64 | 0.0 | 0.0 | 0.00 | 0.00 | 0.00 | 87 | 1012.0 | |
| 20260504033242 | 64 | 0.0 | 2.0 | 0.00 | 0.00 | 0.00 | 87 | 1012.1 | |
| 20260504032242 | 64 | 0.0 | 0.0 | 0.00 | 0.00 | 0.00 | 87 | 1012.1 | |
| 20260504031302 | 64 | 225 | 1.0 | 1.0 | 0.00 | 0.00 | 0.00 | 87 | 1012.1 |
| 20260504030322 | 64 | 225 | 1.0 | 3.0 | 0.00 | 0.00 | 0.00 | 87 | 1012.0 |
| 20260504025243 | 64 | 225 | 1.0 | 3.0 | 0.00 | 0.00 | 0.00 | 87 | 1012.1 |
| 20260504024305 | 64 | 225 | 2.0 | 3.0 | 0.00 | 0.00 | 0.00 | 87 | 1012.1 |
| 20260504023244 | 65 | 225 | 2.0 | 4.0 | 0.00 | 0.00 | 0.00 | 87 | 1012.2 |
| 20260504022244 | 65 | 270 | 2.0 | 6.0 | 0.00 | 0.00 | 0.00 | 86 | 1012.3 |
| 20260504021244 | 65 | 203 | 1.0 | 4.0 | 0.00 | 0.00 | 0.00 | 86 | 1012.3 |
| 20260504020244 | 65 | 270 | 2.0 | 5.0 | 0.00 | 0.00 | 0.00 | 86 | 1012.4 |
| 20260504015244 | 65 | 225 | 4.0 | 9.0 | 0.00 | 0.00 | 0.00 | 86 | 1012.5 |
| 20260504014244 | 65 | 270 | 2.0 | 5.0 | 0.00 | 0.00 | 0.00 | 85 | 1012.5 |
| 20260504013244 | 65 | 248 | 3.0 | 7.0 | 0.00 | 0.00 | 0.00 | 85 | 1012.5 |
| 20260504012244 | 65 | 225 | 4.0 | 10.0 | 0.00 | 0.00 | 0.00 | 85 | 1012.6 |
| 20260504011244 | 65 | 248 | 3.0 | 8.0 | 0.00 | 0.00 | 0.00 | 84 | 1012.7 |
| 20260504010244 | 65 | 203 | 5.0 | 9.0 | 0.00 | 0.00 | 0.00 | 84 | 1012.5 |
| 20260504005244 | 65 | 225 | 3.0 | 7.0 | 0.00 | 0.00 | 0.00 | 84 | 1012.6 |
| 20260504004244 | 65 | 203 | 4.0 | 8.0 | 0.00 | 0.00 | 0.00 | 84 | 1012.5 |
| 20260504003244 | 65 | 158 | 3.0 | 9.0 | 0.00 | 0.00 | 0.00 | 84 | 1012.7 |
| 20260504002304 | 65 | 270 | 4.0 | 9.0 | 0.00 | 0.00 | 0.00 | 84 | 1012.8 |
| 20260504001244 | 65 | 225 | 3.0 | 9.0 | 0.00 | 0.00 | 0.00 | 85 | 1012.9 |
| 20260504000244 | 65 | 203 | 3.0 | 7.0 | 0.00 | 0.00 | 0.00 | 86 | 1013.0 |
| 20260503235243 | 65 | 203 | 3.0 | 8.0 | 0.00 | 0.00 | 0.00 | 86 | 1013.0 |
| 20260503234243 | 65 | 248 | 3.0 | 9.0 | 0.00 | 0.00 | 0.00 | 86 | 1013.0 |
| 20260503233243 | 65 | 225 | 4.0 | 9.0 | 0.00 | 0.00 | 0.00 | 86 | 1012.9 |
| 20260503232243 | 65 | 225 | 4.0 | 11.0 | 0.00 | 0.00 | 0.00 | 86 | 1013.0 |
| 20260503231243 | 66 | 248 | 3.0 | 7.0 | 0.00 | 0.00 | 0.00 | 86 | 1013.0 |
| 20260503230243 | 65 | 270 | 4.0 | 11.0 | 0.00 | 0.00 | 0.00 | 86 | 1013.0 |
| 20260503225243 | 66 | 225 | 4.0 | 7.0 | 0.00 | 0.00 | 0.00 | 86 | 1012.9 |
| 20260503224243 | 66 | 203 | 2.0 | 6.0 | 0.00 | 0.00 | 0.00 | 86 | 1013.0 |
| 20260503223303 | 66 | 248 | 3.0 | 7.0 | 0.00 | 0.00 | 0.00 | 86 | 1013.0 |
| 20260503222304 | 66 | 248 | 4.0 | 8.0 | 0.00 | 0.00 | 0.00 | 86 | 1013.0 |
| 20260503221243 | 66 | 248 | 3.0 | 6.0 | 0.00 | 0.00 | 0.00 | 86 | 1013.1 |
| 20260503220243 | 66 | 225 | 4.0 | 9.0 | 0.00 | 0.00 | 0.00 | 86 | 1013.0 |
| 20260503215243 | 66 | 203 | 4.0 | 9.0 | 0.00 | 0.00 | 0.00 | 87 | 1013.0 |
| 20260503214243 | 66 | 203 | 3.0 | 9.0 | 0.00 | 0.00 | 0.00 | 86 | 1013.0 |
| 20260503213243 | 66 | 225 | 4.0 | 10.0 | 0.00 | 0.00 | 0.00 | 86 | 1012.9 |
| 20260503212243 | 66 | 203 | 3.0 | 6.0 | 0.00 | 0.00 | 0.00 | 86 | 1013.0 |
| 20260503211242 | 66 | 248 | 5.0 | 12.0 | 0.00 | 0.00 | 0.00 | 86 | 1012.9 |
| 20260503210243 | 66 | 225 | 4.0 | 10.0 | 0.00 | 0.00 | 0.00 | 85 | 1012.8 |
| 20260503205242 | 66 | 225 | 3.0 | 7.0 | 0.00 | 0.00 | 0.00 | 85 | 1012.7 |
| 20260503204243 | 66 | 225 | 5.0 | 12.0 | 0.00 | 0.00 | 0.00 | 85 | 1012.6 |
| 20260503203243 | 66 | 180 | 4.0 | 9.0 | 0.00 | 0.00 | 0.00 | 84 | 1012.5 |
| 20260503202243 | 66 | 248 | 4.0 | 9.0 | 0.00 | 0.00 | 0.00 | 85 | 1012.4 |
| 20260503201423 | 66 | 203 | 5.0 | 12.0 | 0.00 | 0.00 | 0.00 | 85 | 1012.2 |
| 20260503200302 | 66 | 225 | 7.0 | 14.0 | 0.00 | 0.00 | 0.00 | 85 | 1012.0 |
| 20260503195243 | 66 | 225 | 5.0 | 11.0 | 0.00 | 0.00 | 0.00 | 85 | 1011.8 |
| 20260503194243 | 67 | 225 | 3.0 | 11.0 | 0.00 | 0.00 | 0.00 | 85 | 1011.7 |
| 20260503193242 | 67 | 225 | 4.0 | 9.0 | 0.00 | 0.00 | 0.00 | 84 | 1011.5 |
| 20260503192305 | 67 | 248 | 5.0 | 11.0 | 0.00 | 0.00 | 0.00 | 84 | 1011.4 |
| 20260503191242 | 67 | 270 | 4.0 | 9.0 | 0.00 | 0.00 | 0.00 | 84 | 1011.3 |
| 20260503190243 | 67 | 225 | 5.0 | 12.0 | 0.00 | 0.00 | 0.00 | 84 | 1011.2 |
| 20260503185304 | 67 | 270 | 5.0 | 12.0 | 0.00 | 0.00 | 0.00 | 84 | 1011.1 |
| 20260503184323 | 67 | 203 | 8.0 | 15.0 | 0.00 | 0.00 | 0.00 | 83 | 1011.0 |
| 20260503183242 | 67 | 225 | 7.0 | 13.0 | 0.00 | 0.00 | 0.00 | 82 | 1011.0 |
| 20260503182242 | 68 | 225 | 5.0 | 12.0 | 0.00 | 0.00 | 0.00 | 81 | 1010.9 |
| 20260503181242 | 68 | 225 | 5.0 | 15.0 | 0.00 | 0.00 | 0.00 | 79 | 1010.7 |
| 20260503180242 | 69 | 225 | 6.0 | 15.0 | 0.00 | 0.00 | 0.00 | 78 | 1010.7 |
| 20260503175242 | 69 | 225 | 7.0 | 13.0 | 0.00 | 0.00 | 0.00 | 77 | 1010.7 |
| 20260503174242 | 69 | 225 | 5.0 | 12.0 | 0.00 | 0.00 | 0.00 | 77 | 1010.8 |